Regional Weather Roundup
Issued by NWS

Home | Current Version | Previous Version | Text Only | Print | Product List | Glossary Off
Versions: 1 2 3 4 5 6 7 8 9 10 11 12 13 14 15 16 17 18 19 20 21 22 23 24 25 26 27 28 29 30 31 32 33 34 35 36 37 38 39 40 41 42 43 44 45 46 47 48 49 50

424
ASUS43 KBIS 061110
RWRND

NORTH DAKOTA REGIONAL WEATHER ROUNDUP
NATIONAL WEATHER SERVICE BISMARCK ND
500 AM CST TUE DEC 06 2016

NOTE: "FAIR" INDICATES FEW OR NO CLOUDS BELOW 12,000 FEET WITH NO
SIGNIFICANT WEATHER AND/OR OBSTRUCTIONS TO VISIBILITY.


NDZ001>003-009>011-017-061200-
NORTHWEST NORTH DAKOTA

CITY           SKY/WX    TMP DP  RH WIND       PRES   REMARKS
WILLISTON      LGT SNOW   7   1  76 NW24G32   29.98S WCI -14
MINOT          HVY SNOW  12   9  87 W36G49    29.73R VSB 1/4 WCI -11
MINOT AFB      BLWGSNOW  10   9  92 NW40      29.72R VSB 1/4 WCI -14
$$

NDZ018>021-031>035-040>046-061200-
SOUTHWEST NORTH DAKOTA

CITY           SKY/WX    TMP DP  RH WIND       PRES   REMARKS
BISMARCK       LGT SNOW  12  10  92 NW25G40   29.76R VSB 1   WCI  -8
DICKINSON      MIX PCPN   5   0  79 NW35      29.85R WCI -20
GARRISON         N/A      9   6  88 NW38G49   29.74R WCI -16
HETTINGER ARPT CLOUDY     6   0  76 NW32G41   29.88R WCI -18
$$

NDZ004>008-012>016-024-026-027-054-061200-
NORTHEAST NORTH DAKOTA

CITY           SKY/WX    TMP DP  RH WIND       PRES   REMARKS
GRAND FORKS    CLOUDY    30  27  88 NW20      29.31S FOG     WCI  17
GRND FRKS AFB  LGT SNOW  28  28 100 N21       29.32F FOG     WCI  15
DEVILS LAKE    LGT SNOW  26  24  92 NW30G37   29.46R VSB 1   WCI  10
$$

NDZ022-023-025-028>030-036>039-047>053-061200-
SOUTHEAST NORTH DAKOTA

CITY           SKY/WX    TMP DP  RH WIND       PRES   REMARKS
FARGO          LGT SNOW  24  20  84 S18       29.41F FOG     WCI  10
JAMESTOWN      SNOW      22  19  89 NW35G48   29.48R VSB 1/2 WCI   3
$$





USA.gov is the U.S. government's official web portal to all federal, state and local government web resources and services.